GW3504 Weather Reports


time (UTC)temp
C
wind
direction
speed
KPH
gust
KPH
rain 1hr
cm
rain 24hr
cm
rain mn
cm
humidity
%
barometer
mb
20260903105526 25 0 1.6 14.5 0.00 0.00 0.00 72 1013.6
20260903105025 25 212 1.6 11.3 0.00 0.00 0.00 72 1013.6
20260903104600 25 183 0.0 9.7 0.00 0.00 0.00 72 1013.5
20260903104026 25 0 1.6 9.7 0.00 0.00 0.00 71 1013.5
20260903103525 25 155 3.2 11.3 0.00 0.00 0.00 71 1013.5
20260903103042 25 178 3.2 11.3 0.00 0.00 0.00 71 1013.5
20260903102526 25 0 1.6 11.3 0.00 0.00 0.00 70 1013.5
20260903102025 25 165 1.6 11.3 0.00 0.00 0.00 70 1013.4
20260903101545 25 0 3.2 9.7 0.00 0.00 0.00 70 1013.4
20260903101025 25 177 1.6 9.7 0.00 0.00 0.00 70 1013.4
20260903100527 25 0 0.0 8.0 0.00 0.00 0.00 70 1013.5
20260903100048 25 0 0.0 8.0 0.00 0.00 0.00 70 1013.4
20260903095524 25 0 0.0 8.0 0.00 0.00 0.00 70 1013.3
20260903095026 25 0 0.0 14.5 0.00 0.00 0.00 70 1013.4
20260903094555 25 180 0.0 14.5 0.00 0.00 0.00 70 1013.4
20260903094028 25 0 3.2 14.5 0.00 0.00 0.00 70 1013.5
20260903093532 25 0 0.0 6.4 0.00 0.00 0.00 70 1013.5
20260903093046 25 0 0.0 8.0 0.00 0.00 0.00 70 1013.5
20260903092525 25 0 0.0 8.0 0.00 0.00 0.00 70 1013.4
20260903092026 25 0 0.0 8.0 0.00 0.00 0.00 70 1013.4
20260903091542 25 0 0.0 0.0 0.00 0.00 0.00 70 1013.4
20260903091024 25 0 0.0 0.0 0.00 0.00 0.00 69 1013.3
20260903090525 25 0 0.0 0.0 0.00 0.00 0.00 68 1013.3
20260903090051 25 0 0.0 0.0 0.00 0.00 0.00 68 1013.3
20260903085523 25 0 0.0 0.0 0.00 0.00 0.00 68 1013.4
20260903085024 25 0 0.0 0.0 0.00 0.00 0.00 68 1013.3
20260903084545 26 0 0.0 0.0 0.00 0.00 0.00 67 1013.4
20260903084025 26 0 0.0 0.0 0.00 0.00 0.00 66 1013.3
20260903083524 26 0 0.0 0.0 0.00 0.00 0.00 65 1013.3
20260903083041 26 0 0.0 4.8 0.00 0.00 0.00 65 1013.3
20260903082523 26 0 0.0 6.4 0.00 0.00 0.00 65 1013.4
20260903082024 26 0 0.0 9.7 0.00 0.00 0.00 65 1013.3
20260903081551 26 164 1.6 9.7 0.00 0.00 0.00 65 1013.3
20260903081027 26 0 0.0 9.7 0.00 0.00 0.00 67 1013.3
20260903080526 25 154 0.0 9.7 0.00 0.00 0.00 68 1013.2
20260903080047 25 181 0.0 0.0 0.00 0.00 0.00 67 1013.2
20260903075525 25 0 0.0 0.0 0.00 0.00 0.00 67 1013.1
20260903075023 26 0 0.0 0.0 0.00 0.00 0.00 66 1013.1
20260903074541 26 0 0.0 0.0 0.00 0.00 0.00 66 1013.1
20260903074024 26 0 0.0 0.0 0.00 0.00 0.00 65 1013.2
20260903073528 26 0 0.0 0.0 0.00 0.00 0.00 65 1013.2
20260903073046 26 0 0.0 0.0 0.00 0.00 0.00 64 1013.1
20260903072522 26 0 0.0 0.0 0.00 0.00 0.00 64 1013.2
20260903072024 26 0 0.0 1.6 0.00 0.00 0.00 63 1013.1
20260903071547 26 0 0.0 1.6 0.00 0.00 0.00 63 1013.2
20260903071023 27 0 0.0 1.6 0.00 0.00 0.00 62 1013.2
20260903070526 27 0 0.0 1.6 0.00 0.00 0.00 62 1013.2
20260903070046 27 0 0.0 1.6 0.00 0.00 0.00 62 1013.1
20260903065525 27 0 0.0 1.6 0.00 0.00 0.00 61 1013.2
20260903065024 27 0 0.0 4.8 0.00 0.00 0.00 61 1013.1
20260903064540 27 0 0.0 4.8 0.00 0.00 0.00 61 1013.1
20260903064024 27 185 0.0 4.8 0.00 0.00 0.00 61 1013.1
20260903063524 27 0 0.0 4.8 0.00 0.00 0.00 61 1013.1
20260903063055 27 185 0.0 4.8 0.00 0.00 0.00 61 1013.1
20260903062527 27 0 0.0 8.0 0.00 0.00 0.00 61 1013.1
20260903062026 27 0 0.0 8.0 0.00 0.00 0.00 60 1013.1
20260903061559 27 0 1.6 6.4 0.00 0.00 0.00 61 1013.1
20260903061023 27 0 0.0 6.4 0.00 0.00 0.00 61 1013.2
20260903060524 27 0 0.0 6.4 0.00 0.00 0.00 61 1013.1
20260903060048 27 0 0.0 6.4 0.00 0.00 0.00 61 1013.1
20260903055528 27 0 0.0 6.4 0.00 0.00 0.00 60 1013.1
20260903055024 27 0 0.0 8.0 0.00 0.00 0.00 60 1013.1
20260903054542 27 0 0.0 8.0 0.00 0.00 0.00 60 1013.1
20260903054024 27 0 0.0 8.0 0.00 0.00 0.00 60 1013.1
20260903053523 27 194 0.0 4.8 0.00 0.00 0.00 60 1013.0
20260903053105 27 0 0.0 1.6 0.00 0.00 0.00 60 1013.0
20260903052523 28 0 0.0 1.6 0.00 0.00 0.00 59 1013.1
20260903052025 28 0 0.0 1.6 0.00 0.00 0.00 59 1013.1
20260903051548 28 0 0.0 1.6 0.00 0.00 0.00 58 1013.2
20260903051024 28 0 0.0 1.6 0.00 0.00 0.00 58 1013.1
20260903050524 28 0 0.0 1.6 0.00 0.00 0.00 57 1013.1
20260903050053 28 0 0.0 3.2 0.00 0.00 0.00 57 1013.1
20260903045525 28 0 0.0 4.8 0.00 0.00 0.00 56 1013.2
20260903045023 28 0 0.0 4.8 0.00 0.00 0.00 56 1013.1
20260903044549 28 139 0.0 3.2 0.00 0.00 0.00 56 1013.1
20260903044023 29 0 0.0 3.2 0.00 0.00 0.00 55 1013.1
20260903043524 29 0 0.0 4.8 0.00 0.00 0.00 55 1013.1
20260903043045 29 0 1.6 6.4 0.00 0.00 0.00 55 1013.2
20260903042526 29 0 0.0 6.4 0.00 0.00 0.00 55 1013.3
20260903042024 29 175 0.0 8.0 0.00 0.00 0.00 55 1013.3
20260903041542 29 0 0.0 8.0 0.00 0.00 0.00 54 1013.3
20260903041025 29 0 0.0 6.4 0.00 0.00 0.00 54 1013.4
20260903040524 29 0 0.0 6.4 0.00 0.00 0.00 54 1013.3
20260903040040 30 152 0.0 4.8 0.00 0.00 0.00 54 1013.3
20260903035527 30 0 0.0 4.8 0.00 0.00 0.00 53 1013.3
20260903035024 30 155 0.0 6.4 0.00 0.00 0.00 54 1013.3
20260903034546 30 0 0.0 6.4 0.00 0.00 0.00 53 1013.3
20260903034024 30 0 0.0 6.4 0.00 0.00 0.00 53 1013.3
20260903033524 30 0 0.0 6.4 0.00 0.00 0.00 53 1013.4
20260903033051 30 0 1.6 8.0 0.00 0.00 0.00 53 1013.3
20260903032523 30 0 3.2 8.0 0.00 0.00 0.00 52 1013.3
20260903032026 30 164 1.6 9.7 0.00 0.00 0.00 52 1013.2
20260903031549 30 167 1.6 9.7 0.00 0.00 0.00 52 1013.2
20260903031024 30 165 1.6 11.3 0.00 0.00 0.00 52 1013.3
20260903030524 30 134 1.6 11.3 0.00 0.00 0.00 52 1013.2
20260903030106 30 168 1.6 9.7 0.00 0.00 0.00 52 1013.2
20260903025529 31 159 0.0 11.3 0.00 0.00 0.00 51 1013.1
20260903025024 31 0 1.6 12.9 0.00 0.00 0.00 51 1013.1
20260903024548 31 0 1.6 12.9 0.00 0.00 0.00 51 1013.1
20260903024023 31 0 1.6 9.7 0.00 0.00 0.00 51 1013.1
20260903023524 31 169 3.2 12.9 0.00 0.00 0.00 51 1013.1
20260903023046 31 138 1.6 12.9 0.00 0.00 0.00 51 1013.1
20260903022524 31 146 3.2 8.0 0.00 0.00 0.00 50 1013.1
20260903022024 31 0 1.6 8.0 0.00 0.00 0.00 50 1013.0
20260903021542 31 0 0.0 9.7 0.00 0.00 0.00 50 1013.0
20260903021026 31 0 1.6 9.7 0.00 0.00 0.00 50 1013.0
20260903020526 31 0 3.2 9.7 0.00 0.00 0.00 50 1012.9
20260903020050 31 157 1.6 11.3 0.00 0.00 0.00 49 1012.9
20260903015525 31 201 1.6 11.3 0.00 0.00 0.00 49 1012.8
20260903015023 31 161 3.2 11.3 0.00 0.00 0.00 49 1012.7
20260903014555 31 176 0.0 6.4 0.00 0.00 0.00 49 1012.7
20260903014026 31 0 0.0 4.8 0.00 0.00 0.00 48 1012.6
20260903013526 32 0 0.0 4.8 0.00 0.00 0.00 48 1012.6
20260903013045 32 0 0.0 8.0 0.00 0.00 0.00 47 1012.5
20260903012526 32 170 1.6 8.0 0.00 0.00 0.00 46 1012.4
20260903012025 32 185 1.6 8.0 0.00 0.00 0.00 46 1012.3
20260903011605 32 151 0.0 8.0 0.00 0.00 0.00 46 1012.2
20260903011026 32 0 0.0 8.0 0.00 0.00 0.00 46 1012.1
20260903010525 32 0 0.0 8.0 0.00 0.00 0.00 46 1012.1
20260903010059 32 0 0.0 4.8 0.00 0.00 0.00 46 1012.1
20260903005523 33 150 0.0 4.8 0.00 0.00 0.00 45 1012.2
20260903005026 33 0 0.0 6.4 0.00 0.00 0.00 45 1012.2
20260903004546 33 0 0.0 6.4 0.00 0.00 0.00 44 1012.1
20260903004025 33 0 0.0 6.4 0.00 0.00 0.00 44 1012.1
20260903003525 33 98 1.6 8.0 0.00 0.00 0.00 43 1012.1
20260903003043 34 119 0.0 8.0 0.00 0.00 0.00 43 1012.1
20260903002525 34 133 0.0 9.7 0.00 0.00 0.00 43 1012.0
20260903002026 34 166 1.6 11.3 0.00 0.00 0.00 42 1012.0
20260903001552 35 158 4.8 11.3 0.00 0.00 0.00 42 1012.1
20260903001025 35 175 1.6 11.3 0.00 0.00 0.00 41 1012.1
20260903000523 35 180 3.2 14.5 0.00 0.00 0.00 41 1012.1
20260903000048 35 0 3.2 14.5 0.00 0.00 0.00 41 1012.1
20260902235525 35 169 1.6 12.9 0.00 0.00 0.00 41 1012.1
20260902235025 35 171 6.4 12.9 0.00 0.00 0.00 41 1012.2
20260902234546 35 165 3.2 14.5 0.00 0.00 0.00 41 1012.2
20260902234026 35 0 4.8 14.5 0.00 0.00 0.00 40 1012.1
20260902233526 35 155 4.8 14.5 0.00 0.00 0.00 40 1012.2
20260902233046 35 173 4.8 14.5 0.00 0.00 0.00 39 1012.2
20260902232529 35 180 3.2 24.1 0.00 0.00 0.00 40 1012.1
20260902232023 35 0 6.4 24.1 0.00 0.00 0.00 39 1012.2
20260902231600 35 197 4.8 20.9 0.00 0.00 0.00 39 1012.3
20260902231026 36 163 6.4 20.9 0.00 0.00 0.00 39 1012.2
20260902230526 36 169 6.4 22.5 0.00 0.00 0.00 39 1012.3
20260902230048 36 176 6.4 22.5 0.00 0.00 0.00 39 1012.3
20260902225525 36 169 1.6 17.7 0.00 0.00 0.00 39 1012.2
20260902225023 36 0 4.8 17.7 0.00 0.00 0.00 38 1012.3
20260902224556 36 191 3.2 17.7 0.00 0.00 0.00 38 1012.3
20260902224031 36 132 4.8 19.3 0.00 0.00 0.00 39 1012.3
20260902223526 36 273 6.4 19.3 0.00 0.00 0.00 38 1012.3
20260902223050 36 167 4.8 17.7 0.00 0.00 0.00 39 1012.4
20260902222524 36 185 6.4 17.7 0.00 0.00 0.00 38 1012.3
20260902222028 36 0 4.8 29.0 0.00 0.00 0.00 39 1012.4
20260902221600 36 165 6.4 29.0 0.00 0.00 0.00 38 1012.3
20260902221024 36 193 6.4 25.7 0.00 0.00 0.00 38 1012.3
20260902220525 36 5 6.4 29.0 0.00 0.00 0.00 39 1012.4
20260902220058 36 153 9.7 29.0 0.00 0.00 0.00 38 1012.3
20260902215525 36 173 6.4 22.5 0.00 0.00 0.00 38 1012.4
20260902215025 36 141 8.0 22.5 0.00 0.00 0.00 39 1012.5
20260902214543 36 174 6.4 19.3 0.00 0.00 0.00 38 1012.4
20260902214025 37 182 4.8 16.1 0.00 0.00 0.00 38 1012.5
20260902213525 37 165 6.4 22.5 0.00 0.00 0.00 38 1012.5
20260902213041 37 152 6.4 22.5 0.00 0.00 0.00 38 1012.6
20260902212525 37 138 9.7 22.5 0.00 0.00 0.00 37 1012.6
20260902212028 37 182 4.8 22.5 0.00 0.00 0.00 37 1012.7
20260902211547 37 225 1.6 24.1 0.00 0.00 0.00 37 1012.9
20260902211026 37 0 8.0 24.1 0.00 0.00 0.00 37 1012.9
20260902210526 37 131 6.4 17.7 0.00 0.00 0.00 37 1012.9
20260902210046 37 140 1.6 20.9 0.00 0.00 0.00 38 1013.0
20260902205525 37 247 6.4 20.9 0.00 0.00 0.00 38 1013.1
20260902205026 37 314 3.2 20.9 0.00 0.00 0.00 36 1013.1
20260902204549 36 0 3.2 14.5 0.00 0.00 0.00 38 1013.3
20260902204025 37 17 3.2 12.9 0.00 0.00 0.00 36 1013.4
20260902203526 37 173 3.2 11.3 0.00 0.00 0.00 36 1013.3
20260902203048 37 292 1.6 24.1 0.00 0.00 0.00 37 1013.4
20260902202523 36 168 3.2 24.1 0.00 0.00 0.00 39 1013.5
20260902202025 37 187 6.4 16.1 0.00 0.00 0.00 37 1013.6
20260902201554 37 103 4.8 14.5 0.00 0.00 0.00 38 1013.5
20260902201025 36 182 8.0 14.5 0.00 0.00 0.00 39 1013.7
20260902200525 36 142 4.8 17.7 0.00 0.00 0.00 40 1013.7
20260902200048 36 103 1.6 17.7 0.00 0.00 0.00 39 1013.9
20260902195524 37 252 3.2 17.7 0.00 0.00 0.00 38 1013.9
20260902195022 37 0 3.2 14.5 0.00 0.00 0.00 39 1013.9
20260902194546 37 159 3.2 14.5 0.00 0.00 0.00 38 1014.0
20260902194026 37 190 4.8 14.5 0.00 0.00 0.00 37 1014.1
20260902193525 37 0 3.2 16.1 0.00 0.00 0.00 37 1014.2
20260902193054 37 242 1.6 16.1 0.00 0.00 0.00 36 1014.2
20260902192525 37 275 3.2 17.7 0.00 0.00 0.00 39 1014.2
20260902192025 37 108 3.2 17.7 0.00 0.00 0.00 37 1014.2
20260902191542 37 271 4.8 24.1 0.00 0.00 0.00 39 1014.3
20260902191025 36 196 11.3 24.1 0.00 0.00 0.00 40 1014.4
20260902190525 37 119 3.2 25.7 0.00 0.00 0.00 39 1014.4
20260902190043 36 173 8.0 25.7 0.00 0.00 0.00 40 1014.6
20260902185525 37 213 4.8 17.7 0.00 0.00 0.00 38 1014.6
20260902185024 37 0 3.2 17.7 0.00 0.00 0.00 40 1014.6
20260902184606 36 146 4.8 17.7 0.00 0.00 0.00 40 1014.6
20260902184027 36 342 4.8 22.5 0.00 0.00 0.00 40 1014.8
20260902183524 37 189 4.8 22.5 0.00 0.00 0.00 39 1014.9
20260902183056 37 163 6.4 22.5 0.00 0.00 0.00 40 1014.9
20260902182526 36 178 3.2 19.3 0.00 0.00 0.00 42 1015.0
20260902182026 36 163 6.4 19.3 0.00 0.00 0.00 41 1015.1
20260902181545 36 153 4.8 17.7 0.00 0.00 0.00 41 1015.1
20260902181026 36 211 3.2 17.7 0.00 0.00 0.00 42 1015.1
20260902180525 36 302 3.2 17.7 0.00 0.00 0.00 43 1015.2
20260902180044 35 202 4.8 17.7 0.00 0.00 0.00 43 1015.3
20260902175524 36 144 3.2 20.9 0.00 0.00 0.00 43 1015.3
20260902175025 36 281 8.0 20.9 0.00 0.00 0.00 44 1015.3
20260902174541 35 288 4.8 17.7 0.00 0.00 0.00 44 1015.4
20260902174025 36 210 3.2 24.1 0.00 0.00 0.00 43 1015.4
20260902173523 35 245 4.8 24.1 0.00 0.00 0.00 46 1015.5
20260902173047 35 150 6.4 24.1 0.00 0.00 0.00 46 1015.5
20260902172528 35 213 8.0 24.1 0.00 0.00 0.00 46 1015.5
20260902172028 35 165 3.2 16.1 0.00 0.00 0.00 46 1015.6
20260902171553 35 163 4.8 16.1 0.00 0.00 0.00 46 1015.8
20260902171026 35 198 4.8 19.3 0.00 0.00 0.00 46 1015.7
20260902170526 35 198 4.8 20.9 0.00 0.00 0.00 47 1015.8
20260902170041 34 171 1.6 27.4 0.00 0.00 0.00 49 1015.9
20260902165525 34 144 8.0 27.4 0.00 0.00 0.00 48 1016.0
20260902165025 34 157 6.4 17.7 0.00 0.00 0.00 48 1015.9
20260902164543 34 150 1.6 19.3 0.00 0.00 0.00 49 1015.9
20260902164023 33 142 6.4 19.3 0.00 0.00 0.00 50 1016.0
20260902163523 33 175 4.8 17.7 0.00 0.00 0.00 50 1016.0
20260902163056 33 164 3.2 16.1 0.00 0.00 0.00 50 1016.1
20260902162524 33 279 4.8 16.1 0.00 0.00 0.00 51 1016.0
20260902162024 33 111 4.8 14.5 0.00 0.00 0.00 51 1016.1
20260902161545 33 317 3.2 16.1 0.00 0.00 0.00 52 1016.0
20260902161023 33 153 3.2 16.1 0.00 0.00 0.00 52 1016.1
20260902160525 32 197 3.2 16.1 0.00 0.00 0.00 53 1016.1
20260902160046 32 149 6.4 16.1 0.00 0.00 0.00 54 1016.1
20260902155525 32 187 6.4 19.3 0.00 0.00 0.00 54 1016.1
20260902155023 32 329 6.4 22.5 0.00 0.00 0.00 56 1016.1
20260902154545 31 160 6.4 22.5 0.00 0.00 0.00 55 1016.1
20260902154024 31 0 1.6 19.3 0.00 0.00 0.00 56 1016.1
20260902153525 31 0 3.2 17.7 0.00 0.00 0.00 58 1016.2
20260902153051 31 180 6.4 19.3 0.00 0.00 0.00 58 1016.2
20260902152526 31 155 1.6 20.9 0.00 0.00 0.00 59 1016.1
20260902152025 30 150 6.4 20.9 0.00 0.00 0.00 59 1016.1
20260902151542 30 148 6.4 19.3 0.00 0.00 0.00 60 1016.1
20260902151024 30 250 4.8 19.3 0.00 0.00 0.00 60 1016.1
20260902150526 30 165 4.8 19.3 0.00 0.00 0.00 61 1016.1
20260902150047 29 0 3.2 19.3 0.00 0.00 0.00 62 1016.1
20260902145524 29 154 6.4 17.7 0.00 0.00 0.00 62 1016.1
20260902145026 28 194 4.8 24.1 0.00 0.00 0.00 63 1016.1
20260902144545 28 167 3.2 24.1 0.00 0.00 0.00 63 1016.0
20260902144024 28 162 1.6 17.7 0.00 0.00 0.00 64 1016.1
20260902143525 28 165 4.8 22.5 0.00 0.00 0.00 64 1016.1
20260902143044 28 165 4.8 22.5 0.00 0.00 0.00 63 1016.2
20260902142524 28 0 1.6 20.9 0.00 0.00 0.00 63 1016.3
20260902142024 28 166 4.8 14.5 0.00 0.00 0.00 63 1016.3
20260902141539 28 195 3.2 14.5 0.00 0.00 0.00 63 1016.3
20260902141027 27 138 1.6 17.7 0.00 0.00 0.00 64 1016.3
20260902140523 27 247 3.2 19.3 0.00 0.00 0.00 65 1016.2
20260902140044 27 175 3.2 19.3 0.00 0.00 0.00 66 1016.3
20260902135524 27 188 4.8 17.7 0.00 0.00 0.00 66 1016.3
20260902135025 26 155 4.8 16.1 0.00 0.00 0.00 67 1016.2
20260902134552 26 180 1.6 14.5 0.00 0.00 0.00 68 1016.2
20260902134025 26 182 3.2 14.5 0.00 0.00 0.00 68 1016.3
20260902133524 26 150 3.2 11.3 0.00 0.00 0.00 69 1016.3
20260902133047 25 166 1.6 11.3 0.00 0.00 0.00 69 1016.3
20260902132525 25 168 3.2 11.3 0.00 0.00 0.00 70 1016.3
20260902132027 25 152 4.8 9.7 0.00 0.00 0.00 69 1016.2
20260902131545 25 190 3.2 12.9 0.00 0.00 0.00 70 1016.2
20260902131025 25 169 3.2 12.9 0.00 0.00 0.00 70 1016.1
20260902130526 25 147 1.6 12.9 0.00 0.00 0.00 70 1016.1
20260902130043 25 159 4.8 12.9 0.00 0.00 0.00 71 1016.1
20260902125529 24 169 1.6 8.0 0.00 0.00 0.00 72 1016.0
20260902125025 24 163 1.6 11.3 0.00 0.00 0.00 72 1015.9
20260902124548 24 132 1.6 11.3 0.00 0.00 0.00 73 1015.9
20260902124022 24 0 1.6 8.0 0.00 0.00 0.00 73 1015.8
20260902123524 23 178 0.0 9.7 0.00 0.00 0.00 73 1015.8
20260902123053 23 184 3.2 9.7 0.00 0.00 0.00 73 1015.8
20260902122527 23 184 1.6 9.7 0.00 0.00 0.00 73 1015.7
20260902122026 23 0 1.6 12.9 0.00 0.00 0.00 73 1015.7
20260902121544 23 0 0.0 12.9 0.00 0.00 0.00 73 1015.7
20260902121025 23 157 0.0 6.4 0.00 0.00 0.00 73 1015.7
20260902120526 23 180 0.0 6.4 0.00 0.00 0.00 73 1015.5
20260902120053 23 0 1.6 8.0 0.00 0.00 0.00 72 1015.6
20260902115524 23 0 1.6 8.0 0.00 0.00 0.00 72 1015.6
20260902115024 23 160 3.2 8.0 0.00 0.00 0.00 71 1015.5
20260902114546 24 0 0.0 8.0 0.00 0.00 0.00 71 1015.5
20260902114023 24 0 1.6 8.0 0.00 0.00 0.00 71 1015.4
20260902113524 24 148 1.6 9.7 0.00 0.00 0.00 70 1015.4
20260902113044 24 161 3.2 11.3 0.00 0.00 0.00 70 1015.5
20260902112527 24 169 4.8 11.3 0.00 0.00 0.00 70 1015.4
20260902112024 24 0 3.2 8.0 0.00 0.00 0.00 70 1015.4
20260902111540 24 185 1.6 8.0 0.00 0.00 0.00 70 1015.4
20260902111026 24 161 0.0 9.7 0.00 0.00 0.00 69 1015.4
20260902110527 24 160 1.6 9.7 0.00 0.00 0.00 69 1015.3
20260902110047 24 0 3.2 9.7 0.00 0.00 0.00 69 1015.3